Wind_Speed
12 12 12 12 12 13 13 12 11 11 11 11 11 11 11 10 10 10 10 11 11 12 12 12 12 12 13 13 13 13 13 13 12 12 12 12 12 12 12 12 12 12 11 11
11 12 11 11 12 13 13 13 12 12 12 11 11 11 11 11 10 10 10 11 12 11 11 12 13 13 13 13 13 13 13 13 12 12 12 12 13 13 12 12 12 12 12 12
11 10 11 12 12 12 13 13 12 12 12 12 11 10 10 10 10 10 10 11 11 11 11 12 12 13 12 12 13 13 13 13 13 13 12 12 12 13 13 13 13 13 13 14
11 11 11 12 13 12 12 13 13 12 11 12 12 11 10 10 10 10 10 11 12 12 12 13 13 13 13 13 14 13 13 13 14 14 13 13 13 13 13 13 14 15 14 14
10 11 12 12 12 13 13 13 13 12 12 12 13 13 11 11 10 10 10 11 12 12 12 13 13 14 14 14 14 14 14 14 14 14 14 14 14 14 14 14 14 14 15 15
11 11 12 12 12 13 12 13 14 14 14 14 13 13 12 11 11 10 10 11 12 12 13 13 13 14 15 15 15 15 15 15 15 15 15 15 15 15 15 15 15 15 15 15
12 12 12 13 13 13 13 14 14 15 16 15 14 14 12 12 12 12 12 12 12 14 14 14 15 15 16 16 16 15 16 15 15 15 15 16 16 16 17 17 16 17 16 16
13 12 13 14 14 14 14 15 15 16 15 15 15 16 14 13 13 13 14 14 15 15 15 15 15 16 17 17 17 16 16 16 16 16 16 17 17 18 18 19 19 18 18 17
13 13 13 13 13 13 14 15 15 15 16 16 16 16 15 15 14 14 14 15 16 16 15 15 16 17 17 18 18 17 17 16 17 17 18 18 18 19 19 20 20 19 19 18
13 13 13 13 13 13 14 14 15 16 16 16 16 16 16 16 15 15 15 15 16 16 16 15 16 17 17 18 19 18 18 18 18 19 19 19 20 20 20 20 20 20 20 19
14 14 13 13 13 14 14 15 16 17 17 17 17 15 15 16 16 15 15 15 15 16 16 16 16 17 18 18 19 18 18 19 20 20 20 20 20 20 20 20 20 20 20 20
15 15 14 14 14 15 15 16 17 18 18 18 18 17 17 17 17 17 16 16 17 17 17 17 17 18 19 19 19 19 18 19 19 19 20 19 20 20 20 20 20 20 21 21
15 16 15 15 15 16 16 16 17 18 19 19 20 18 17 18 18 17 18 18 18 18 18 18 19 19 20 20 19 19 19 19 19 19 19 19 20 19 20 20 20 21 22 22
15 16 17 16 16 18 18 17 18 19 19 20 20 19 18 19 19 19 20 20 21 21 20 21 21 20 20 20 21 20 20 20 19 19 18 19 20 20 20 20 20 21 22 22
15 16 17 18 17 19 19 19 19 20 20 21 20 19 18 19 20 21 21 21 22 22 22 23 23 22 21 21 21 21 21 21 20 20 20 20 21 21 20 20 20 21 21 22
16 16 17 18 19 19 20 19 20 21 21 22 21 20 19 20 21 22 23 23 22 23 23 23 23 23 22 22 22 22 22 22 22 22 22 21 21 21 21 21 21 21 21 21
17 17 17 18 19 19 19 19 20 21 21 22 22 21 21 22 22 22 23 24 24 24 24 24 24 23 23 23 22 22 23 24 24 24 23 23 23 22 22 22 22 22 22 22
17 18 18 19 19 18 16 18 20 21 22 22 22 22 23 24 24 24 24 24 24 25 25 25 24 24 24 24 24 23 24 25 25 25 24 24 24 24 23 22 22 22 22 22
18 19 19 20 20 19 17 18 19 20 21 22 22 22 22 23 24 24 25 27 27 26 25 25 25 25 25 25 25 24 24 24 25 25 25 25 25 25 24 24 23 23 23 23
18 19 20 20 20 20 18 18 19 21 22 22 22 23 23 23 25 25 26 27 29 29 28 27 26 26 26 27 27 27 27 27 27 26 26 25 26 26 25 25 25 24 24 24
17 18 19 20 21 20 19 20 20 22 22 23 23 24 24 23 25 26 26 27 28 29 29 28 28 28 27 28 28 28 28 28 29 28 27 27 27 27 26 26 26 25 25 25
18 18 19 20 21 20 20 21 22 22 23 24 24 24 24 24 25 26 26 27 28 29 29 29 29 29 29 29 29 28 28 29 29 29 29 29 28 28 28 28 27 27 26 26
19 19 20 21 21 21 21 22 22 23 23 24 24 24 25 25 25 25 25 26 27 27 28 29 30 30 30 30 29 29 28 28 29 29 29 29 29 29 28 28 28 28 28 27
20 21 21 22 22 22 22 23 24 24 24 25 25 25 25 25 25 26 26 27 27 27 28 29 30 30 30 30 30 29 29 28 28 28 28 29 28 27 27 28 28 28 28 27
22 22 23 22 22 23 22 22 24 25 25 25 25 25 25 26 26 27 28 28 28 28 29 30 30 30 30 30 29 29 29 28 28 28 28 28 28 28 28 28 29 29 29 29
23 23 23 23 23 24 24 23 25 26 26 26 26 26 26 27 28 28 28 29 28 29 30 31 31 30 30 29 29 29 29 29 29 28 29 29 29 29 29 30 30 29 29 29
Wind_Direction
239 239 238 240 245 249 251 254 254 252 253 256 258 257 257 251 253 256 259 261 265 264 264 268 270 270 271 273 275 273 273 273 274 271 267 263 259 258 259 263 265 269 273 272
240 237 236 239 245 247 247 251 255 254 256 258 260 259 256 253 251 256 262 264 265 264 264 266 268 270 271 271 271 274 272 270 271 270 267 262 259 258 261 264 266 266 269 271
243 241 238 239 241 246 247 249 253 256 257 257 255 251 252 255 260 265 268 271 271 271 269 267 266 268 269 269 269 272 272 270 270 268 266 262 262 263 262 263 265 268 271 271
246 243 240 240 246 250 247 251 254 255 257 254 254 254 254 258 263 267 270 274 275 274 273 273 270 267 269 270 271 271 270 268 270 268 265 263 262 262 262 264 267 269 270 271
246 244 245 246 248 251 252 251 254 259 259 259 259 261 257 258 263 271 277 279 280 280 279 276 273 269 268 269 272 271 269 268 268 267 263 261 261 262 263 265 267 270 270 270
243 245 249 251 251 255 255 254 255 256 258 257 259 264 257 257 263 270 278 281 282 281 279 275 273 270 269 270 272 272 270 268 269 267 264 263 264 264 265 268 270 271 271 271
246 247 250 250 251 252 251 253 253 254 255 255 257 261 263 260 264 269 273 277 281 279 278 277 272 271 270 269 271 269 267 267 267 266 265 264 264 266 268 269 271 272 271 271
251 249 249 250 252 252 252 252 254 255 256 255 258 261 263 264 265 267 272 276 279 280 279 279 277 273 272 272 272 270 267 266 267 268 268 268 267 267 268 269 270 270 268 269
252 251 249 250 251 250 251 251 253 257 258 257 259 262 264 263 262 265 272 275 278 281 282 281 277 272 271 270 272 272 271 266 267 268 268 269 270 269 269 270 269 268 267 268
253 251 250 252 252 252 252 253 254 257 261 260 261 264 266 266 264 266 269 272 275 281 282 283 278 274 273 273 273 273 271 269 270 270 270 270 271 271 270 269 268 266 265 266
255 254 251 250 251 254 252 251 254 257 259 261 262 262 265 265 265 267 271 273 277 281 284 283 281 277 276 275 275 275 274 272 271 271 270 271 272 272 270 268 267 265 263 264
255 256 250 251 252 253 253 255 256 257 260 262 264 264 264 265 266 269 273 274 275 277 281 282 282 282 278 275 275 275 274 272 273 273 271 271 272 271 270 269 266 264 264 264
258 258 254 250 252 251 251 253 255 257 260 262 265 270 268 266 266 269 271 274 275 276 278 280 282 282 279 275 274 275 274 272 271 273 273 273 273 273 271 269 267 265 265 265
261 261 256 254 254 253 251 252 255 257 259 262 266 267 266 266 266 268 271 272 274 277 277 278 278 277 277 275 274 272 272 272 272 272 274 274 275 274 272 270 269 267 266 265
263 265 261 258 257 255 254 254 255 258 261 264 267 267 268 268 267 267 270 271 273 275 276 277 277 276 276 276 274 272 270 270 271 271 270 273 274 273 272 272 270 268 267 267
263 266 266 263 260 260 256 255 257 259 262 264 266 267 269 268 267 268 269 270 272 275 276 276 276 275 275 275 273 270 268 268 269 269 269 270 271 271 270 270 270 268 267 267
264 266 268 267 264 264 260 257 256 260 262 264 265 268 267 268 269 270 271 272 273 274 275 275 275 276 275 275 275 272 270 268 268 268 268 268 269 270 269 269 269 268 267 267
270 269 270 270 269 269 270 265 262 263 263 264 266 267 268 270 270 271 273 273 273 273 273 273 274 275 275 275 274 272 270 268 267 268 268 268 268 268 268 269 268 267 266 267
275 272 272 274 274 273 269 269 265 265 266 266 266 267 269 270 270 271 272 272 272 272 272 272 272 273 274 274 274 272 270 268 268 268 269 268 267 266 266 267 266 266 267 268
276 274 273 273 274 273 271 271 269 269 268 268 268 269 270 272 272 272 273 272 271 271 270 270 271 272 271 272 272 272 270 270 270 269 269 268 268 267 266 265 264 264 266 267
277 276 274 272 272 273 274 274 273 273 275 273 271 271 272 273 274 274 274 273 271 272 270 269 269 271 271 271 272 272 271 271 271 269 268 266 266 266 265 264 264 263 265 265
277 276 275 274 272 274 276 275 275 277 276 274 273 273 273 273 274 276 275 274 272 271 270 269 269 269 271 272 273 273 272 270 269 267 266 265 265 266 265 263 263 263 263 264
275 276 275 275 276 278 281 279 277 277 277 276 275 274 274 275 275 277 277 276 275 273 272 270 270 270 271 271 272 272 272 270 268 267 266 264 265 266 265 264 262 262 261 262
274 276 276 277 277 277 280 280 278 278 279 279 280 278 278 277 276 277 277 277 277 276 276 275 274 272 272 272 271 271 271 271 269 266 265 264 264 265 265 264 262 261 260 260
273 274 275 276 276 275 278 279 279 278 278 281 282 281 281 280 279 280 279 278 277 276 278 278 277 276 275 273 271 270 270 270 269 267 266 265 264 263 264 264 262 260 260 259
273 274 275 274 275 274 275 277 278 279 279 281 281 280 281 280 281 281 281 280 278 278 279 280 278 278 277 275 270 269 269 269 269 268 266 264 263 264 264 262 261 260 259 258
Height
5818 5820 5820 5822 5823 5824 5825 5825 5826 5827 5827 5828 5829 5829 5829 5829 5829 5830 5830 5830 5831 5831 5831 5831 5831 5832 5831 5831 5832 5831 5831 5831 5831 5831 5831 5831 5832 5832 5832 5833 5833 5833 5833 5832
5816 5816 5818 5818 5819 5820 5821 5822 5823 5824 5824 5824 5825 5825 5825 5826 5826 5827 5827 5827 5827 5827 5827 5828 5828 5828 5828 5828 5828 5828 5827 5827 5828 5828 5828 5828 5828 5829 5829 5829 5829 5829 5829 5829
5812 5814 5814 5815 5815 5816 5817 5819 5820 5820 5821 5821 5822 5823 5822 5822 5823 5823 5823 5823 5823 5823 5824 5824 5824 5825 5825 5824 5824 5824 5824 5824 5824 5824 5824 5824 5824 5825 5825 5826 5826 5826 5826 5826
5810 5811 5811 5812 5812 5813 5814 5815 5816 5817 5817 5818 5819 5819 5820 5819 5819 5820 5820 5819 5820 5820 5820 5820 5820 5821 5821 5821 5820 5820 5820 5820 5820 5820 5820 5820 5821 5821 5822 5822 5822 5822 5822 5822
5807 5808 5808 5809 5810 5810 5811 5812 5813 5813 5813 5814 5815 5815 5817 5816 5816 5816 5816 5816 5816 5816 5816 5816 5816 5816 5817 5817 5817 5816 5816 5816 5816 5816 5816 5816 5817 5817 5817 5817 5817 5817 5817 5817
5804 5805 5805 5806 5807 5807 5808 5809 5809 5810 5810 5811 5811 5811 5812 5812 5813 5813 5813 5813 5813 5813 5813 5812 5812 5812 5812 5812 5813 5812 5812 5812 5811 5812 5812 5812 5812 5813 5813 5813 5813 5813 5813 5813
5801 5802 5802 5803 5803 5804 5804 5806 5806 5806 5806 5807 5807 5807 5809 5808 5809 5809 5809 5809 5809 5809 5809 5809 5808 5808 5808 5808 5808 5808 5808 5807 5807 5807 5807 5807 5808 5808 5808 5808 5808 5808 5808 5808
5797 5798 5798 5798 5799 5799 5800 5801 5803 5803 5802 5803 5803 5802 5804 5804 5804 5804 5804 5805 5805 5804 5804 5804 5804 5804 5804 5803 5803 5803 5803 5803 5803 5802 5802 5802 5802 5802 5802 5802 5802 5803 5803 5803
5793 5795 5795 5795 5795 5796 5796 5796 5798 5798 5798 5799 5799 5799 5799 5799 5800 5800 5800 5800 5800 5800 5800 5799 5799 5799 5799 5798 5798 5797 5797 5797 5797 5797 5797 5797 5797 5797 5797 5797 5796 5797 5797 5797
5789 5790 5791 5791 5791 5792 5793 5793 5793 5793 5793 5794 5794 5794 5795 5795 5795 5796 5796 5796 5795 5795 5795 5794 5794 5794 5793 5793 5792 5792 5792 5791 5791 5791 5791 5791 5791 5791 5791 5790 5790 5791 5791 5791
5784 5786 5787 5787 5788 5788 5788 5789 5788 5789 5789 5789 5789 5792 5791 5790 5790 5791 5791 5791 5791 5791 5790 5790 5789 5789 5788 5787 5787 5786 5786 5785 5785 5785 5785 5785 5785 5784 5784 5784 5784 5784 5785 5785
5780 5781 5781 5783 5783 5783 5783 5783 5784 5784 5785 5784 5785 5789 5786 5786 5785 5786 5786 5786 5785 5785 5785 5784 5784 5783 5782 5782 5781 5781 5780 5780 5780 5779 5778 5778 5778 5778 5778 5778 5777 5778 5778 5778
5775 5776 5777 5778 5780 5779 5778 5778 5778 5779 5779 5779 5780 5784 5781 5780 5780 5780 5780 5780 5779 5779 5779 5779 5778 5777 5777 5776 5775 5775 5774 5774 5774 5773 5773 5772 5772 5771 5771 5771 5771 5771 5771 5771
5770 5770 5772 5773 5772 5772 5773 5773 5773 5773 5773 5773 5774 5775 5775 5774 5775 5775 5775 5774 5774 5774 5773 5773 5772 5772 5771 5770 5769 5769 5768 5768 5768 5767 5767 5766 5766 5765 5765 5764 5764 5764 5764 5764
5765 5765 5765 5766 5766 5766 5767 5768 5768 5768 5768 5768 5768 5769 5769 5769 5769 5769 5769 5768 5768 5767 5767 5766 5766 5765 5765 5763 5763 5762 5762 5761 5761 5761 5760 5760 5759 5759 5758 5758 5757 5757 5757 5757
5760 5760 5760 5760 5760 5760 5761 5762 5762 5762 5762 5762 5762 5763 5763 5763 5762 5762 5762 5761 5761 5760 5760 5760 5759 5758 5758 5757 5756 5756 5755 5755 5754 5754 5753 5753 5752 5752 5751 5751 5751 5750 5750 5750
5754 5755 5755 5755 5754 5754 5755 5756 5756 5756 5756 5756 5756 5758 5757 5756 5756 5755 5755 5754 5754 5753 5753 5753 5752 5751 5750 5750 5749 5749 5748 5747 5747 5746 5745 5745 5745 5744 5744 5744 5744 5744 5744 5743
5749 5749 5749 5749 5750 5749 5752 5750 5750 5750 5750 5750 5749 5750 5750 5749 5748 5748 5747 5746 5746 5746 5745 5745 5744 5744 5743 5742 5742 5741 5740 5740 5739 5739 5738 5737 5737 5737 5737 5737 5737 5737 5737 5737
5744 5743 5743 5743 5743 5744 5745 5744 5743 5743 5743 5743 5743 5743 5743 5742 5741 5741 5740 5739 5738 5737 5737 5737 5736 5736 5735 5735 5734 5733 5733 5732 5732 5731 5730 5730 5730 5729 5729 5730 5730 5730 5730 5730
5739 5738 5738 5737 5737 5737 5739 5738 5736 5737 5737 5737 5736 5736 5736 5735 5734 5734 5732 5731 5730 5729 5729 5728 5728 5727 5727 5727 5726 5725 5724 5724 5723 5723 5722 5722 5721 5721 5721 5721 5722 5722 5723 5723
5733 5732 5732 5731 5730 5731 5732 5730 5730 5730 5731 5729 5728 5728 5728 5727 5726 5726 5724 5723 5721 5721 5720 5720 5719 5719 5719 5718 5717 5716 5716 5715 5714 5714 5713 5713 5713 5713 5713 5713 5713 5714 5715 5715
5727 5726 5726 5725 5724 5727 5725 5724 5724 5723 5722 5721 5720 5720 5719 5719 5718 5717 5715 5714 5713 5712 5712 5711 5711 5711 5710 5709 5708 5707 5706 5706 5705 5705 5704 5704 5704 5704 5704 5704 5705 5706 5706 5707
5721 5721 5720 5720 5721 5719 5717 5716 5716 5715 5714 5714 5713 5712 5711 5711 5710 5709 5707 5706 5705 5704 5703 5702 5702 5701 5701 5700 5699 5698 5697 5696 5696 5695 5695 5695 5695 5695 5695 5695 5696 5697 5698 5699
5714 5713 5713 5712 5712 5711 5710 5709 5708 5707 5706 5705 5704 5704 5703 5702 5701 5700 5699 5697 5696 5696 5694 5693 5693 5692 5691 5690 5689 5689 5688 5687 5687 5687 5686 5686 5686 5686 5687 5687 5687 5688 5689 5690
5708 5706 5705 5705 5704 5704 5703 5701 5700 5699 5698 5697 5696 5695 5694 5693 5693 5692 5690 5689 5688 5687 5685 5684 5683 5682 5681 5680 5680 5680 5679 5678 5678 5678 5677 5677 5678 5678 5678 5678 5679 5680 5681 5682
5700 5699 5698 5698 5697 5696 5695 5694 5693 5691 5690 5690 5689 5687 5686 5685 5684 5683 5681 5680 5679 5678 5676 5675 5673 5672 5671 5670 5670 5670 5670 5669 5669 5669 5669 5669 5669 5669 5669 5670 5670 5671 5672 5673